Location: Avon
(37.7514°N, 90.2235°W)
Time: 17:47:28
(UTC+00:00)

A-11 Canister half - Pass Details

Date: 16 November 2025
Orbit: 1526 x 1681 km, 47.3° (Epoch: 06 December)

Event Time Altitude Azimuth Distance (km) Brightness Sun altitude
Rises 01:32:05 0° 264° (W) 4,884 12.7 -32.2°
Reaches altitude 10° 01:35:23 10° 269° (W) 3,879 11.9 -32.8°
Maximum altitude 01:45:02 54° 345° (NNW) 1,888 9.4 -34.7°
Enters shadow 01:46:43 49° 17° (NNE) 1,972 9.3 -35.0°
